Location: Killam
(52.7910°N, 111.8608°W)
Time: 12:17:35
(UTC+00:00)

BlueWalker 3 - Pass Details

Date: 29 January 2026
Orbit: 450 x 461 km, 53.2° (Epoch: 11 February)

Event Time Altitude Azimuth Distance (km) Brightness Sun altitude
Rises 01:51:36 0° 261° (W) 2,457 7.3 -15.9°
Reaches altitude 10° 01:53:44 10° 261° (W) 1,584 5.8 -16.2°
Maximum altitude 01:57:18 88° 347° (NNW) 457 1.6 -16.7°
Enters shadow 01:58:21 43° 80° (E) 642 2.0 -16.9°
